Date String (YYYY-MM-DD hh:mm:ss) UTC,Instrument flags,Ambient pressure (hPa),Sample flow (lpm),Bypass flow (lpm),Sample temperature (°C),Ambient temperature (°C),ASC tube jacket temperature (°C),LED temperature (°C),Box temperature (°C),Sample RH (%),Span deviation,Mass concentration (μg/m³),Mass concentration (μg/m³),Mass concentration (μg/m³)
DateTimeUTC,F1_M11,P_M11,Q1_M11,Q2_M11,T1_M11,T2_M11,T3_M11,T4_M11,T5_M11,U1_M11,ZSPAN_M11,X0_M11,X2_M11,X1_M11
2022-06-17 03:00:00,,0827.1,5.00,0.00,29.2,28.1,00.0,37.9,31.2,30.5,0000.0,0036.52,0010.66,0005.11
2022-06-17 03:01:00,,0827.2,4.99,0.00,29.2,28.2,00.0,37.9,31.3,30.4,0000.0,0036.55,0010.58,0005.10
2022-06-17 03:02:00,,0827.3,5.00,0.00,29.3,28.4,00.0,38.0,31.4,30.2,0000.0,0035.59,0010.41,0005.09
2022-06-17 03:03:00,,0827.2,5.01,0.00,29.3,28.1,00.0,38.0,31.3,30.1,0001.8,0035.58,0010.37,0005.09
2022-06-17 03:04:00,,0827.2,4.99,0.00,29.2,27.3,00.0,37.9,31.0,30.1,0003.7,0034.19,0010.31,0005.09
2022-06-17 03:05:00,,0827.2,4.99,0.00,29.1,26.9,00.0,37.9,30.9,30.2,0003.5,0032.12,0010.16,0005.08
2022-06-17 03:06:00,,0827.3,5.01,0.00,29.1,26.8,00.0,37.8,30.8,30.2,0003.2,0033.03,0010.17,0005.07
2022-06-17 03:07:00,,0827.2,4.99,0.00,29.0,26.9,00.0,37.8,30.9,30.2,0003.4,0033.11,0010.16,0005.05
2022-06-17 03:08:00,,0827.3,5.00,0.00,29.0,27.1,00.0,37.8,30.9,30.2,0001.9,0033.30,0010.13,0005.05
2022-06-17 03:09:00,,0827.2,5.00,0.00,29.0,27.3,00.0,37.9,31.0,30.1,0000.0,0033.99,0010.11,0005.03
2022-06-17 03:10:00,,0827.3,5.00,0.00,29.1,27.6,00.0,37.9,31.0,30.1,0001.5,0033.54,0010.08,0005.03
2022-06-17 03:11:00,,0827.4,5.01,0.00,29.1,27.8,00.0,37.9,31.1,30.1,0001.8,0033.00,0009.94,0005.03
2022-06-17 03:12:00,,0827.4,5.01,0.00,29.1,28.0,00.0,37.9,31.2,30.1,0001.0,0031.19,0009.84,0005.02
2022-06-17 03:13:00,,0827.4,5.00,0.00,29.2,28.2,00.0,37.9,31.2,30.1,0000.8,0031.24,0009.87,0005.03
2022-06-17 03:14:00,,0827.4,4.99,0.00,29.2,28.3,00.0,37.9,31.3,30.3,-000.0,0031.88,0009.86,0005.03
2022-06-17 03:15:00,,0827.4,4.99,0.00,29.3,28.2,00.0,37.9,31.3,30.5,0000.0,0032.49,0009.87,0005.03
2022-06-17 03:16:00,,0827.4,5.00,0.00,29.2,27.5,00.0,37.9,31.1,30.7,0000.0,0034.36,0009.96,0005.06
2022-06-17 03:17:00,,0827.4,5.01,0.00,29.1,26.9,00.0,37.8,30.9,30.8,0000.0,0033.50,0010.04,0005.11
2022-06-17 03:18:00,,0827.4,4.98,0.00,29.1,26.8,00.0,37.8,30.8,31.0,0000.0,0033.48,0010.10,0005.14
2022-06-17 03:19:00,,0827.5,4.99,0.00,29.0,26.8,00.0,37.8,30.8,31.1,0000.0,0034.85,0010.11,0005.17
2022-06-17 03:20:00,,0827.5,5.00,0.00,29.0,27.0,00.0,37.8,30.9,31.1,0000.0,0034.22,0010.09,0005.21
2022-06-17 03:21:00,,0827.5,4.99,0.00,29.0,27.2,00.0,37.8,30.9,31.1,0000.0,0033.98,0010.08,0005.25
2022-06-17 03:22:00,,0827.7,4.99,0.00,29.0,27.4,00.0,37.8,31.0,31.3,-000.2,0034.42,0010.29,0005.28
2022-06-17 03:23:00,,0827.7,5.01,0.00,29.0,27.6,00.0,37.8,31.0,31.3,0000.0,0035.80,0010.50,0005.30
2022-06-17 03:24:00,,0827.9,5.01,0.00,29.1,27.8,00.0,37.8,31.1,31.3,-000.9,0036.58,0010.61,0005.33
2022-06-17 03:25:00,,0827.9,4.99,0.00,29.1,28.0,00.0,37.9,31.2,31.3,-000.3,0037.38,0010.75,0005.34
2022-06-17 03:26:00,,0827.9,5.01,0.00,29.1,28.2,00.0,37.9,31.2,31.2,0000.6,0038.18,0010.83,0005.36
2022-06-17 03:27:00,,0828.0,4.99,0.00,29.2,28.3,00.0,37.9,31.3,31.2,0000.7,0035.80,0010.73,0005.35
2022-06-17 03:28:00,,0827.9,5.00,0.00,29.2,28.4,00.0,37.9,31.3,31.0,0000.2,0037.14,0010.60,0005.34
2022-06-17 03:29:00,,0827.9,5.01,0.00,29.2,27.8,00.0,37.9,31.1,30.9,0001.7,0037.59,0010.45,0005.30
2022-06-17 03:30:00,,0827.8,4.99,0.00,29.1,27.1,00.0,37.8,30.9,31.0,0001.3,0036.52,0010.38,0005.26
2022-06-17 03:31:00,,0827.8,5.00,0.00,29.1,26.8,00.0,37.8,30.8,30.9,0000.2,0036.48,0010.39,0005.23
2022-06-17 03:32:00,,0827.7,5.01,0.00,29.0,26.8,00.0,37.8,30.8,30.9,0000.8,0036.40,0010.31,0005.19
2022-06-17 03:33:00,,0827.6,4.99,0.00,29.0,27.0,00.0,37.8,30.8,31.0,0002.6,0035.56,0010.29,0005.17
2022-06-17 03:34:00,,0827.6,5.01,0.00,29.0,27.2,00.0,37.8,30.9,30.9,0003.6,0034.35,0010.05,0005.10
2022-06-17 03:35:00,,0827.7,5.01,0.00,29.0,27.4,00.0,37.8,31.0,30.8,0003.7,0033.99,0009.85,0005.04
2022-06-17 03:36:00,,0827.6,4.99,0.00,29.0,27.6,00.0,37.8,31.0,30.9,0003.3,0032.93,0009.55,0004.99
2022-06-17 03:37:00,,0827.5,5.00,0.00,29.1,27.8,00.0,37.8,31.1,30.8,0001.6,0032.62,0009.39,0004.93
2022-06-17 03:38:00,,0827.6,5.00,0.00,29.1,28.0,00.0,37.9,31.2,30.6,0000.0,0032.16,0009.29,0004.84
2022-06-17 03:39:00,,0827.7,5.00,0.00,29.1,28.2,00.0,37.9,31.2,30.6,0000.0,0030.49,0009.25,0004.76
2022-06-17 03:40:00,,0827.7,5.01,0.00,29.2,28.3,00.0,37.9,31.3,30.5,0000.2,0029.58,0009.25,0004.70
2022-06-17 03:41:00,,0827.7,4.99,0.00,29.2,28.4,00.0,37.9,31.3,30.5,0002.8,0029.18,0009.24,0004.66
2022-06-17 03:42:00,,0827.7,4.99,0.00,29.3,28.1,00.0,37.9,31.2,30.4,0002.8,0028.94,0009.15,0004.63
2022-06-17 03:43:00,,0827.8,5.00,0.00,29.2,27.3,00.0,37.9,31.0,30.6,0002.0,0027.84,0009.14,0004.64
2022-06-17 03:44:00,,0827.8,5.01,0.00,29.1,26.9,00.0,37.8,30.9,31.1,0000.2,0027.79,0009.00,0004.65
2022-06-17 03:45:00,,0827.9,4.99,0.00,29.1,26.8,00.0,37.8,30.8,31.7,0000.0,0028.52,0009.06,0004.69
2022-06-17 03:46:00,,0827.9,5.00,0.00,29.0,26.9,00.0,37.8,30.8,32.3,0000.0,0028.89,0009.07,0004.72
2022-06-17 03:47:00,,0827.8,5.00,0.00,29.0,27.1,00.0,37.8,30.9,32.6,0000.1,0029.70,0009.27,0004.75
2022-06-17 03:48:00,,0827.7,5.01,0.00,29.0,27.3,00.0,37.8,30.9,32.6,0001.8,0029.78,0009.47,0004.80
2022-06-17 03:49:00,,0827.8,5.00,0.00,29.0,27.5,00.0,37.8,31.0,32.4,0000.6,0031.15,0009.70,0004.87
2022-06-17 03:50:00,,0827.7,4.99,0.00,29.1,27.7,00.0,37.8,31.0,32.5,0000.0,0033.42,0009.87,0004.93
2022-06-17 03:51:00,,0827.8,5.00,0.00,29.1,27.9,00.0,37.8,31.1,32.4,0000.2,0033.51,0009.90,0004.99
2022-06-17 03:52:00,,0827.8,5.00,0.00,29.1,28.1,00.0,37.9,31.2,32.2,0000.0,0034.01,0009.95,0005.04
2022-06-17 03:53:00,,0827.9,5.01,0.00,29.2,28.2,00.0,37.9,31.2,32.0,0000.0,0033.49,0010.00,0005.04
2022-06-17 03:54:00,,0828.0,5.00,0.00,29.2,28.4,00.0,37.9,31.3,32.0,0000.0,0032.97,0010.02,0005.03
2022-06-17 03:55:00,,0827.9,4.99,0.00,29.3,28.5,00.0,37.9,31.3,31.8,0000.0,0033.03,0009.94,0004.98
2022-06-17 03:56:00,,0828.0,5.01,0.00,29.3,28.0,00.0,37.9,31.2,31.6,0000.0,0032.52,0009.76,0004.93
2022-06-17 03:57:00,,0828.0,5.00,0.00,29.2,27.2,00.0,37.9,31.0,31.6,0000.5,0031.45,0009.67,0004.88
2022-06-17 03:58:00,,0828.0,4.99,0.00,29.1,26.8,00.0,37.8,30.9,31.6,0000.3,0030.33,0009.62,0004.84
2022-06-17 03:59:00,,0828.0,5.01,0.00,29.1,26.8,00.0,37.8,30.8,31.6,0000.0,0028.99,0009.47,0004.79
